Wind_Speed
25 26 29 34 37 42 47 55 62 68 72 74 74 74 74 73 70 68 66 65 64 59 55 53 52 52 53 55 57 58 57 54 52 51 50 49 47 44 40 36 33 30 30 33
25 28 30 34 38 44 50 57 65 70 74 75 73 73 74 71 69 67 65 64 60 56 53 52 52 52 54 56 59 60 57 53 51 51 51 51 50 47 42 37 33 29 27 29
31 33 33 37 43 48 53 60 66 72 74 75 73 73 73 70 68 65 64 62 57 53 52 52 52 53 55 59 61 61 58 53 52 52 53 53 53 51 47 40 34 29 27 26
35 37 38 41 44 50 55 61 68 72 75 73 72 72 71 68 65 64 62 58 54 52 51 52 53 54 57 61 63 61 58 54 53 54 55 55 56 55 52 46 37 30 26 25
37 39 39 42 47 52 57 63 69 73 73 72 71 71 68 66 65 63 60 55 52 51 52 53 53 55 58 62 63 61 58 56 55 55 56 57 58 57 55 48 38 30 25 23
37 39 42 45 49 53 59 65 69 72 71 70 70 69 67 65 63 61 57 53 51 52 52 53 54 56 60 63 62 60 58 57 57 58 58 59 60 61 57 48 37 29 23 21
38 39 42 46 50 55 59 65 69 71 69 68 68 67 65 64 62 59 54 51 51 52 53 54 55 57 60 62 61 60 58 57 58 60 61 62 64 63 56 45 33 26 21 18
40 42 45 47 50 54 59 65 69 69 67 67 67 65 64 62 60 56 52 50 50 52 53 55 56 58 60 61 60 59 58 58 60 61 63 65 67 64 55 41 29 21 18 16
40 41 43 45 49 54 59 65 68 68 66 66 65 64 62 60 58 54 50 49 50 52 53 55 56 58 59 60 59 59 58 59 61 62 64 67 69 66 54 39 26 17 14 13
39 41 43 46 50 55 59 65 68 66 65 65 64 62 60 58 56 52 48 47 49 51 53 54 55 57 59 59 59 59 59 59 61 62 63 67 71 69 57 41 27 17 11 10
38 40 42 46 51 55 59 64 67 65 64 63 62 60 59 57 54 49 46 46 48 50 52 53 54 56 58 59 59 59 59 60 61 62 63 66 71 72 64 47 33 21 12 8
39 41 43 47 51 55 59 64 66 64 62 62 61 59 57 55 52 48 45 45 47 50 51 52 53 55 57 58 58 58 58 60 61 62 63 64 68 71 69 57 41 29 19 11
38 40 43 47 51 55 59 63 64 63 61 61 59 58 56 54 50 46 43 44 46 49 51 52 52 54 55 56 57 58 59 60 62 62 62 63 65 68 69 66 54 39 27 18
38 40 43 47 51 55 59 62 63 61 60 59 58 57 55 52 49 45 42 42 45 48 50 51 51 52 53 54 56 57 59 61 62 63 63 63 64 65 67 67 63 54 40 28
38 40 44 47 51 54 58 61 62 59 58 58 57 55 53 51 48 44 41 41 43 47 49 50 50 50 51 53 54 56 57 60 62 63 63 63 63 63 63 64 64 62 55 45
39 41 44 47 50 53 57 60 60 58 57 56 55 54 52 50 47 43 40 39 41 45 47 49 48 48 49 51 53 54 57 59 61 61 62 62 62 62 61 61 61 61 60 56
39 41 43 46 49 52 56 59 59 56 55 55 53 52 51 49 46 42 40 38 39 43 46 47 47 46 47 49 51 53 55 57 58 59 60 61 62 62 61 60 59 59 58 58
40 41 43 45 48 51 55 57 57 55 54 53 52 51 49 48 46 42 39 38 39 42 45 46 45 44 45 46 48 51 53 55 56 57 58 60 61 62 62 61 60 59 57 56
40 41 42 44 47 51 54 56 55 53 52 52 51 49 48 47 44 41 38 37 38 40 42 44 43 43 43 43 46 48 50 52 53 55 56 58 59 60 61 62 61 61 59 57
41 41 42 44 47 50 53 54 53 51 51 50 49 48 47 45 43 40 37 35 35 36 39 41 42 41 40 41 43 45 47 49 50 51 53 55 56 58 59 60 61 61 61 59
41 41 42 44 46 49 51 52 52 50 49 48 47 46 45 44 43 40 37 34 34 35 37 39 40 40 39 39 41 42 44 45 47 48 50 52 53 55 56 57 59 60 60 60
41 41 42 44 46 48 50 51 50 48 47 47 46 45 43 43 41 39 36 33 33 33 34 36 38 39 39 39 39 40 41 42 44 45 47 48 50 51 53 54 55 57 58 59
41 41 42 43 45 47 49 50 49 47 46 45 44 44 42 40 40 38 35 33 31 31 32 33 35 37 38 38 37 38 38 39 41 42 44 46 47 48 50 50 52 53 55 56
41 41 42 43 44 47 49 49 48 46 44 43 42 42 40 39 38 37 35 31 29 29 29 31 32 34 36 37 37 37 37 37 38 39 41 43 44 46 47 48 49 50 51 52
41 41 41 42 44 46 48 48 47 44 42 41 41 41 39 37 37 36 35 31 28 27 27 28 29 31 33 35 36 36 36 37 37 37 38 39 41 43 45 46 47 47 48 49
40 40 41 42 44 47 48 48 46 43 41 40 39 39 38 36 35 35 34 31 28 26 25 26 27 28 30 32 34 35 36 37 37 36 36 37 38 40 41 42 44 45 46 47
40 40 41 43 46 48 48 47 45 42 40 39 38 38 37 35 33 33 33 31 28 25 24 24 25 26 27 29 31 33 34 36 36 36 36 36 36 37 38 39 40 41 43 44
Wind_Direction
335 333 330 328 328 332 336 338 339 340 341 341 341 341 341 341 340 340 339 336 336 339 341 342 342 342 343 343 343 342 340 340 340 342 343 342 339 333 326 318 309 295 281 266
335 331 331 327 331 336 338 339 339 340 341 342 342 341 341 341 341 341 339 338 339 342 343 343 344 344 345 345 345 344 343 343 343 344 345 346 344 340 334 325 315 304 288 271
337 336 336 334 337 337 339 340 340 341 341 342 342 342 342 342 342 341 340 340 343 345 345 345 345 345 346 346 346 346 345 345 344 344 344 344 344 343 338 330 320 309 295 278
338 338 339 337 335 338 340 340 340 340 341 342 342 342 342 342 342 342 341 343 345 347 347 346 346 346 347 347 347 347 347 346 345 344 343 342 342 341 339 332 322 310 298 283
338 338 338 338 339 339 340 340 340 340 341 342 343 342 343 343 344 343 344 346 348 349 349 348 348 348 348 348 348 348 348 347 347 346 345 343 340 339 336 331 322 310 298 284
337 337 338 339 339 339 340 340 339 340 342 342 342 342 344 345 344 345 346 348 350 350 350 350 349 349 349 349 350 350 350 350 349 349 347 345 342 339 336 331 321 308 295 282
338 338 338 339 340 339 340 339 339 341 342 342 342 344 345 345 345 346 348 350 351 352 352 352 351 351 351 352 352 353 353 352 351 351 350 348 346 343 339 333 321 308 294 280
339 339 339 338 338 339 338 339 340 341 342 342 343 345 346 346 347 348 350 352 353 353 353 353 353 353 354 354 355 355 355 354 354 354 353 352 351 349 345 339 328 311 295 281
337 335 335 335 336 338 339 339 340 341 342 343 344 346 347 347 348 350 352 354 354 354 354 354 355 355 356 357 358 359 358 358 357 357 357 357 357 357 354 350 341 323 301 284
333 332 333 334 336 337 338 339 340 342 343 344 345 347 348 348 349 351 353 355 356 356 356 356 356 357 359 1 2 2 2 2 2 2 2 2 3 4 3 1 356 344 319 293
329 329 331 333 335 336 337 339 341 342 343 344 346 347 349 349 350 352 354 356 357 358 358 358 359 360 2 4 5 5 5 6 6 6 6 7 9 10 11 10 8 3 348 317
326 328 330 332 334 335 337 338 341 343 344 345 347 348 349 350 352 353 355 357 358 359 360 0 1 2 5 7 7 7 8 9 10 10 11 12 14 15 17 18 16 13 8 354
322 325 328 330 333 335 336 338 341 343 344 345 347 349 350 351 352 354 355 357 359 0 1 2 3 5 7 8 9 9 11 13 14 14 15 16 17 19 21 23 24 22 19 13
320 323 326 329 332 334 336 338 341 343 344 346 348 350 351 352 353 354 355 357 359 1 3 4 6 7 8 10 11 11 13 16 17 18 19 20 20 22 23 25 27 29 28 24
318 321 325 328 330 333 335 338 340 343 344 346 348 350 352 353 354 354 355 357 359 2 4 6 7 8 9 11 12 13 15 18 20 20 21 23 23 24 25 27 29 31 32 32
316 319 323 326 329 332 335 337 340 342 344 346 348 350 352 353 354 354 355 357 360 2 5 7 8 9 11 14 14 15 17 20 22 22 23 25 26 27 27 28 30 32 33 35
313 317 321 325 328 331 334 337 340 342 344 346 348 350 352 353 354 354 355 357 360 2 5 8 9 10 12 15 16 17 19 22 23 23 24 26 28 29 30 30 31 32 33 34
312 316 320 324 327 330 333 336 339 341 343 345 348 350 352 353 353 354 355 356 359 2 6 8 9 10 13 15 16 18 20 22 24 24 25 27 29 31 31 32 32 33 34 34
311 315 320 323 326 329 332 336 339 341 343 345 347 350 352 353 353 353 354 355 358 1 5 8 9 10 12 14 16 19 20 22 24 24 26 27 29 31 32 33 34 34 34 34
311 315 319 322 325 328 331 335 338 340 342 344 347 349 351 353 353 353 354 355 357 1 4 7 9 10 11 12 16 19 20 21 23 24 25 27 28 30 32 34 35 35 35 35
310 314 317 321 324 327 330 334 337 339 341 343 346 348 350 352 352 352 353 354 357 1 4 7 9 11 11 12 15 18 19 21 22 23 24 26 27 29 31 33 34 35 35 35
309 313 316 320 323 326 330 333 336 338 340 342 345 347 349 351 351 351 352 353 356 360 3 5 9 11 12 13 15 17 18 19 20 21 23 24 25 26 28 30 32 34 35 35
308 312 315 318 322 325 329 332 334 336 338 340 343 346 347 349 350 350 351 353 355 358 1 4 7 10 13 14 15 16 17 18 18 19 21 23 24 25 26 28 30 31 33 34
306 311 314 317 320 324 328 330 332 334 336 339 341 344 345 346 348 349 351 351 353 355 358 1 5 9 13 15 16 16 16 16 17 18 20 22 23 24 25 26 27 29 30 32
305 309 312 316 319 323 326 328 330 332 334 336 339 342 342 343 346 347 349 350 351 353 354 358 2 7 11 14 16 17 17 17 17 17 18 20 22 23 24 25 26 27 28 29
303 306 310 314 318 321 324 326 327 329 331 333 336 339 340 340 343 345 347 348 348 349 350 353 358 3 7 11 14 17 18 18 18 17 17 18 20 21 22 23 24 25 26 27
301 305 308 312 316 319 322 323 324 326 328 331 333 336 337 338 339 342 344 346 346 345 345 348 352 357 1 5 9 12 16 17 18 18 17 17 18 20 20 20 21 23 24 24
Height
5836 5831 5826 5819 5813 5805 5796 5785 5773 5760 5746 5731 5715 5700 5685 5670 5654 5640 5625 5610 5596 5582 5569 5557 5545 5533 5520 5508 5494 5480 5467 5454 5441 5429 5417 5405 5394 5384 5375 5367 5362 5357 5354 5354
5833 5828 5822 5815 5808 5799 5789 5778 5765 5752 5739 5723 5708 5693 5678 5663 5648 5634 5619 5605 5590 5576 5564 5552 5540 5528 5515 5502 5488 5474 5460 5447 5435 5423 5411 5399 5388 5377 5367 5358 5352 5347 5343 5341
5827 5822 5817 5809 5800 5792 5783 5771 5758 5745 5732 5716 5702 5686 5672 5657 5642 5628 5613 5598 5585 5572 5560 5547 5535 5523 5510 5496 5482 5467 5453 5441 5429 5417 5405 5393 5381 5370 5359 5350 5342 5337 5332 5330
5821 5816 5809 5806 5795 5785 5775 5764 5751 5738 5724 5710 5695 5680 5665 5651 5636 5622 5607 5594 5581 5568 5556 5543 5530 5517 5504 5490 5476 5461 5448 5435 5423 5411 5398 5386 5374 5362 5350 5340 5332 5326 5322 5319
5816 5809 5805 5798 5788 5778 5768 5758 5745 5732 5717 5703 5688 5675 5661 5645 5630 5617 5603 5589 5576 5564 5552 5539 5526 5513 5500 5485 5471 5456 5443 5430 5417 5405 5392 5379 5365 5352 5340 5329 5320 5314 5311 5308
5812 5805 5798 5793 5782 5772 5762 5751 5739 5725 5711 5697 5683 5670 5656 5640 5625 5611 5597 5584 5572 5560 5548 5536 5523 5510 5496 5481 5466 5452 5438 5424 5411 5398 5385 5371 5355 5340 5326 5314 5306 5301 5299 5297
5807 5800 5794 5785 5775 5766 5757 5747 5732 5718 5705 5691 5678 5664 5650 5634 5620 5606 5593 5580 5568 5557 5545 5533 5520 5507 5493 5478 5463 5449 5434 5420 5407 5392 5378 5362 5346 5328 5312 5300 5291 5287 5286 5286
5800 5793 5788 5779 5770 5762 5753 5739 5726 5713 5699 5686 5672 5658 5643 5629 5615 5602 5589 5578 5566 5554 5542 5530 5518 5505 5491 5476 5461 5446 5432 5418 5403 5387 5372 5355 5338 5318 5300 5287 5279 5276 5275 5276
5798 5792 5784 5775 5766 5757 5746 5734 5721 5708 5695 5681 5667 5653 5639 5626 5612 5599 5587 5576 5565 5553 5541 5528 5516 5503 5490 5475 5460 5445 5431 5416 5401 5385 5368 5351 5332 5312 5293 5279 5271 5268 5267 5268
5792 5785 5778 5769 5761 5751 5740 5729 5716 5703 5690 5676 5663 5649 5636 5622 5609 5597 5585 5575 5564 5552 5540 5528 5515 5502 5489 5474 5459 5445 5431 5416 5401 5385 5368 5350 5330 5310 5290 5276 5268 5264 5262 5263
5787 5780 5773 5765 5756 5746 5735 5723 5711 5698 5685 5672 5659 5646 5632 5619 5606 5594 5583 5573 5563 5552 5540 5527 5515 5502 5488 5475 5461 5447 5433 5418 5403 5387 5370 5352 5332 5312 5293 5277 5268 5263 5261 5260
5782 5775 5768 5760 5751 5741 5730 5718 5706 5693 5680 5668 5655 5642 5629 5617 5604 5592 5582 5572 5562 5551 5539 5527 5515 5502 5489 5476 5462 5449 5436 5421 5406 5390 5373 5356 5339 5319 5300 5284 5272 5265 5262 5260
5776 5769 5762 5754 5745 5735 5725 5713 5701 5688 5676 5665 5652 5639 5626 5614 5602 5591 5581 5572 5562 5551 5540 5528 5516 5503 5491 5478 5465 5452 5438 5424 5409 5393 5377 5361 5346 5329 5312 5295 5281 5271 5266 5262
5770 5763 5756 5748 5739 5730 5719 5708 5696 5684 5673 5661 5648 5636 5624 5612 5600 5590 5581 5572 5562 5552 5540 5529 5517 5505 5493 5481 5468 5456 5442 5427 5413 5397 5382 5367 5353 5338 5323 5308 5294 5282 5272 5267
5764 5757 5750 5742 5734 5724 5714 5703 5691 5680 5669 5657 5645 5634 5622 5610 5599 5589 5580 5571 5562 5552 5541 5530 5518 5507 5496 5484 5472 5460 5446 5432 5418 5403 5389 5375 5361 5348 5334 5320 5307 5295 5284 5275
5757 5750 5744 5736 5728 5719 5709 5698 5687 5676 5665 5654 5642 5631 5619 5608 5598 5589 5580 5571 5562 5553 5543 5532 5521 5510 5499 5488 5476 5464 5451 5437 5424 5412 5399 5385 5372 5358 5345 5332 5320 5309 5297 5287
5751 5744 5737 5730 5722 5713 5704 5693 5682 5671 5661 5650 5639 5628 5617 5606 5597 5588 5580 5571 5563 5554 5544 5533 5522 5513 5502 5491 5481 5469 5456 5444 5432 5421 5408 5395 5382 5369 5356 5344 5332 5321 5310 5300
5744 5738 5732 5724 5716 5708 5698 5688 5678 5667 5657 5647 5636 5625 5614 5604 5594 5585 5577 5569 5562 5553 5544 5534 5524 5515 5505 5495 5485 5474 5462 5451 5440 5429 5417 5405 5392 5379 5367 5355 5344 5333 5323 5313
5737 5732 5725 5718 5710 5702 5693 5683 5673 5663 5653 5643 5633 5623 5613 5603 5593 5584 5576 5569 5561 5553 5545 5535 5527 5517 5508 5499 5489 5478 5468 5458 5447 5437 5426 5415 5403 5391 5379 5367 5356 5345 5334 5325
5731 5725 5718 5711 5704 5696 5687 5678 5668 5659 5649 5640 5630 5621 5611 5602 5594 5585 5577 5570 5563 5555 5547 5538 5529 5520 5511 5503 5493 5483 5474 5464 5455 5445 5435 5424 5413 5402 5390 5379 5368 5357 5347 5337
5724 5718 5711 5705 5698 5690 5681 5672 5663 5654 5645 5636 5627 5618 5609 5600 5592 5584 5576 5569 5562 5555 5547 5540 5531 5523 5514 5505 5496 5487 5479 5470 5461 5452 5442 5432 5422 5412 5401 5390 5380 5369 5359 5349
5716 5711 5705 5698 5691 5684 5675 5667 5658 5650 5641 5633 5624 5615 5606 5598 5590 5582 5574 5568 5561 5555 5548 5541 5533 5525 5517 5508 5499 5491 5483 5475 5467 5459 5449 5440 5430 5421 5411 5401 5390 5380 5371 5361
5709 5704 5698 5691 5684 5677 5669 5661 5653 5645 5637 5629 5621 5612 5604 5597 5589 5582 5575 5567 5561 5555 5549 5542 5535 5527 5519 5511 5503 5495 5487 5480 5472 5464 5456 5447 5438 5429 5419 5410 5400 5391 5381 5372
5701 5696 5690 5684 5678 5670 5663 5655 5647 5640 5632 5625 5617 5609 5602 5594 5587 5580 5572 5565 5560 5554 5548 5542 5536 5529 5521 5513 5506 5498 5491 5484 5477 5469 5461 5453 5444 5436 5427 5418 5409 5400 5391 5382
5693 5688 5683 5677 5670 5664 5656 5649 5641 5634 5627 5620 5613 5605 5598 5591 5585 5578 5571 5564 5558 5553 5548 5542 5536 5530 5523 5516 5509 5502 5494 5487 5480 5473 5466 5458 5450 5442 5434 5426 5417 5409 5400 5391
5685 5680 5675 5669 5663 5656 5649 5642 5635 5629 5622 5615 5608 5601 5595 5588 5582 5575 5569 5562 5556 5551 5546 5541 5536 5530 5524 5518 5511 5504 5497 5490 5483 5477 5470 5463 5455 5448 5440 5433 5425 5417 5408 5400
5676 5672 5666 5661 5655 5649 5642 5635 5629 5623 5616 5610 5604 5597 5591 5585 5579 5573 5567 5561 5555 5549 5545 5540 5535 5530 5525 5519 5513 5507 5500 5493 5487 5480 5474 5467 5460 5452 5446 5438 5431 5423 5415 5407